Location: Newark
(34.3481°N, 134.0494°E)
Time: 01:10:59
(UTC+00:00)

Vanguard 3 - Pass Details

Date: 28 January 2020
Orbit: 508 x 3263 km, 33.3° (Epoch: 19 February)

Event Time Altitude Azimuth Distance (km) Brightness Sun altitude
Rises 10:26:37 0° 271° (W) 7,155 13.3 -24.4°
Reaches altitude 10° 10:31:21 10° 271° (W) 6,197 12.7 -25.3°
Maximum altitude 10:51:32 86° 186° (S) 2,851 9.7 -29.5°
Enters shadow 10:57:54 47° 102° (ESE) 3,105 9.5 -30.8°
Drops below altitude 10° 11:05:25 10° 100° (E) 4,500 - -32.4°
Sets 11:08:16 0° 100° (E) 5,195 - -32.9°
